Location: Unspecified
(0.0000°N, 0.0000°E)
Time: 23:38:33
(UTC+00:00)

Envisat - Pass Details

Date: 11 August 2022
Orbit: 763 x 765 km, 98.2° (Epoch: 15 August)

Event Time Altitude Azimuth Distance (km) Brightness Sun altitude
Rises 03:48:11 0° 18° (NNE) 3,212 6.7 -32.9°
Reaches altitude 10° 03:50:30 10° 22° (NNE) 2,290 5.9 -32.4°
Enters shadow 03:54:29 51° 53° (NE) 957 3.7 -31.4°
